Green Bay, WI

2:57 PM CDT on June 28, 2017 (GMT -0500)
Austin Straubel International

Weather History for KGRB - June, 2013

Change the Weather History Date:

Sunday, June 16, 2013

  Actual Average Record
Temperature  
Mean Temperature 71 °F 65 °F  
Max Temperature 83 °F 76 °F 93 °F (1994)
Min Temperature 59 °F 55 °F 35 °F (1964)
Degree Days  
Heating Degree Days 0 3  
Month to date heating degree days 61 67  
Since 1 June heating degree days 61 67  
Since 1 July heating degree days 7703 7930  
Cooling Degree Days 6 3  
Month to date cooling degree days 22 30  
Year to date cooling degree days 60 48  
Since 1 June cooling degree days 22 30  
Growing Degree Days 22 (Base 50)    
Moisture  
Dew Point 59 °F    
Average Humidity 65    
Maximum Humidity 93    
Minimum Humidity 37    
Precipitation  
Precipitation 0.00 in 0.13 in 3.06 in (1897)
Month to date precipitation 2.08 2.10  
Year to date precipitation 15.85 11.75  
Snow  
Snow 0.00 in 0.00 in 0.00 in ()
Month to date snowfall 0.0 0.0  
Since 1 June snowfall 0.0 0.0  
Since 1 July snowfall 74.2 51.4  
Snow Depth 0.00 in    
Sea Level Pressure  
Sea Level Pressure 29.84 in    
Wind  
Wind Speed 10 mph (West)    
Max Wind Speed 23 mph    
Max Gust Speed 31 mph    
Visibility 9 miles    
Events      
T = Trace of Precipitation, MM = Missing Value Source: NWS Daily Summary

Daily Weather History Graph

Daily Weather History Graph

Search for Another Location

Airport or City:

Trip Planner

Search our weather history database for the weather conditions in past years. The results will help you decide how hot, cold, wet, or windy it might be!

Date:

Astronomy

Jun. 16, 2013 Rise Set
Actual Time 5:07 AM CDT 8:39 PM CDT
Civil Twilight 4:30 AM CDT 9:16 PM CDT
Nautical Twilight 3:41 AM CDT 10:05 PM CDT
Astronomical Twilight 2:38 AM CDT 11:08 PM CDT
Moon 1:00 PM CDT (6/16) 12:28 AM CDT (6/16)
Length of Visible Light 16h 46m
Length of Day
15h 32m
Waxing Crescent, 50% of the Moon is Illuminated
Jun 16
Waxing Crescent
Jun 16
First Quarter
Jun 23
Full
Jun 29
Last Quarter
Jul 8
New

Hourly Weather History & Observations

Time (CDT) Temp. Heat Index Dew Point Humidity Pressure Visibility Wind Dir Wind Speed Gust Speed Precip Events Conditions
12:53 AM 64.0 °F - 62.1 °F 93% 29.83 in 10.0 mi West 5.8 mph - N/A   Clear
1:22 AM 63.0 °F - 62.1 °F 97% 29.83 in 10.0 mi West 9.2 mph - N/A   Scattered Clouds
1:32 AM 64.0 °F - 62.1 °F 93% 29.83 in 10.0 mi West 10.4 mph - N/A   Mostly Cloudy
1:53 AM 64.0 °F - 62.1 °F 93% 29.83 in 6.0 mi West 11.5 mph - N/A   Overcast
2:53 AM 64.0 °F - 63.0 °F 96% 29.81 in 5.0 mi WNW 11.5 mph - N/A   Overcast
3:53 AM 64.0 °F - 62.1 °F 93% 29.81 in 5.0 mi WNW 10.4 mph - N/A   Overcast
4:47 AM 62.6 °F - 62.6 °F 100% 29.83 in 5.0 mi West 10.4 mph - N/A   Scattered Clouds
4:53 AM 63.0 °F - 61.0 °F 93% 29.83 in 5.0 mi West 10.4 mph - N/A   Scattered Clouds
5:53 AM 63.0 °F - 61.0 °F 93% 29.84 in 8.0 mi West 5.8 mph - N/A   Clear
6:53 AM 64.0 °F - 60.1 °F 87% 29.85 in 10.0 mi West 11.5 mph - N/A   Clear
7:24 AM 64.9 °F - 61.0 °F 87% 29.86 in 9.0 mi West 12.7 mph - N/A   Scattered Clouds
7:44 AM 64.0 °F - 61.0 °F 90% 29.86 in 9.0 mi West 11.5 mph - N/A   Mostly Cloudy
7:53 AM 64.9 °F - 61.0 °F 87% 29.86 in 9.0 mi West 11.5 mph - N/A   Scattered Clouds
8:53 AM 68.0 °F - 61.0 °F 78% 29.85 in 10.0 mi West 6.9 mph - N/A   Clear
9:53 AM 73.0 °F - 61.0 °F 66% 29.84 in 10.0 mi WNW 9.2 mph - N/A   Clear
10:53 AM 75.9 °F - 62.1 °F 62% 29.84 in 10.0 mi West 9.2 mph - N/A   Clear
11:53 AM 78.1 °F - 59.0 °F 52% 29.84 in 10.0 mi WNW 11.5 mph - N/A   Clear
12:53 PM 80.1 °F 80.7 °F 59.0 °F 48% 29.84 in 10.0 mi West 18.4 mph - N/A   Clear
1:53 PM 82.0 °F 82.0 °F 57.9 °F 44% 29.83 in 10.0 mi WNW 15.0 mph 21.9 mph N/A   Partly Cloudy
2:53 PM 82.9 °F 81.9 °F 54.0 °F 37% 29.83 in 10.0 mi West 15.0 mph 26.5 mph N/A   Partly Cloudy
3:53 PM 82.9 °F 82.1 °F 55.9 °F 39% 29.83 in 10.0 mi West 16.1 mph - N/A   Mostly Cloudy
4:53 PM 82.0 °F 81.3 °F 54.0 °F 38% 29.83 in 10.0 mi WSW 17.3 mph 23.0 mph N/A   Partly Cloudy
5:53 PM 81.0 °F 80.5 °F 54.0 °F 39% 29.82 in 10.0 mi West 11.5 mph 24.2 mph N/A   Partly Cloudy
6:53 PM 78.1 °F - 54.0 °F 43% 29.83 in 10.0 mi Calm Calm - N/A   Scattered Clouds
7:53 PM 70.0 °F - 55.9 °F 61% 29.86 in 10.0 mi North 6.9 mph - N/A   Scattered Clouds
8:53 PM 66.9 °F - 60.1 °F 79% 29.86 in 10.0 mi Calm Calm - N/A   Clear
9:53 PM 64.9 °F - 57.9 °F 78% 29.91 in 10.0 mi North - - N/A   Scattered Clouds
10:53 PM 64.9 °F - 54.0 °F 68% 29.91 in 10.0 mi NNE 9.2 mph - N/A   Clear
11:53 PM 63.0 °F - 53.1 °F 70% 29.90 in 10.0 mi Calm Calm - N/A   Clear